Temp
-21 -21 -21 -21 -21 -20 -20 -20 -21 -20 -19 -19 -19 -18 -18 -18 -18 -18 -18 -18 -17 -17 -17 -17 -17 -17 -18 -18 -17 -17 -17 -16 -16 -15 -14 -14 -13 -13 -13 -13 -12 -13 -13 -13
-22 -21 -21 -21 -20 -21 -20 -20 -20 -20 -20 -19 -19 -19 -18 -18 -18 -18 -18 -18 -18 -18 -18 -18 -18 -18 -18 -18 -17 -17 -16 -16 -16 -15 -14 -14 -13 -13 -13 -12 -12 -12 -13 -13
-21 -22 -21 -21 -21 -21 -20 -21 -20 -20 -20 -20 -20 -20 -20 -19 -19 -18 -18 -19 -19 -18 -18 -18 -18 -18 -17 -17 -17 -17 -17 -16 -15 -15 -15 -14 -14 -13 -13 -13 -13 -13 -13 -13
-22 -22 -22 -22 -21 -21 -21 -21 -20 -21 -21 -20 -20 -20 -20 -20 -19 -19 -19 -20 -19 -18 -18 -18 -18 -17 -17 -17 -16 -16 -15 -15 -15 -14 -14 -14 -14 -13 -13 -13 -13 -13 -13 -13
-23 -22 -22 -22 -22 -22 -21 -22 -22 -21 -21 -21 -20 -20 -21 -20 -20 -20 -20 -20 -19 -19 -18 -18 -17 -17 -17 -16 -16 -15 -15 -14 -14 -14 -13 -13 -13 -13 -13 -13 -13 -13 -13 -13
-23 -23 -22 -22 -23 -22 -22 -22 -22 -22 -22 -21 -21 -21 -21 -20 -21 -20 -20 -19 -19 -19 -18 -18 -18 -17 -17 -16 -16 -15 -15 -15 -14 -13 -13 -13 -13 -12 -13 -13 -13 -14 -15 -14
-24 -24 -23 -23 -23 -23 -23 -22 -22 -22 -22 -21 -21 -21 -21 -21 -21 -21 -20 -20 -19 -19 -19 -19 -18 -18 -18 -17 -17 -16 -15 -15 -14 -14 -14 -13 -14 -14 -15 -14 -15 -15 -15 -15
-24 -24 -24 -24 -23 -23 -23 -23 -23 -22 -22 -22 -21 -21 -21 -20 -20 -21 -20 -20 -20 -20 -19 -19 -20 -19 -19 -19 -18 -17 -17 -16 -16 -15 -15 -15 -15 -15 -15 -15 -15 -16 -16 -16
-24 -25 -24 -24 -24 -24 -23 -23 -23 -23 -22 -22 -22 -21 -21 -21 -21 -21 -21 -20 -20 -20 -20 -20 -20 -20 -20 -19 -19 -18 -17 -17 -17 -16 -15 -16 -16 -16 -15 -16 -16 -16 -16 -17
-25 -25 -24 -24 -24 -24 -24 -24 -23 -23 -23 -23 -22 -22 -22 -22 -22 -21 -21 -21 -21 -21 -21 -21 -21 -20 -20 -20 -20 -19 -19 -19 -17 -17 -16 -16 -16 -16 -16 -16 -16 -16 -16 -16
-25 -25 -25 -24 -24 -24 -24 -24 -24 -23 -23 -23 -23 -22 -22 -22 -22 -22 -22 -22 -22 -22 -21 -21 -21 -21 -20 -20 -20 -20 -20 -19 -19 -18 -18 -16 -16 -16 -16 -16 -16 -16 -16 -16
-25 -25 -25 -25 -25 -24 -24 -24 -24 -23 -23 -23 -23 -23 -22 -22 -23 -22 -23 -22 -22 -22 -22 -22 -22 -21 -21 -21 -20 -20 -20 -20 -19 -19 -19 -18 -17 -16 -16 -16 -16 -16 -16 -16
-26 -26 -26 -26 -25 -25 -25 -24 -24 -23 -23 -24 -24 -24 -23 -23 -23 -23 -23 -23 -23 -23 -22 -22 -22 -22 -22 -22 -22 -21 -21 -20 -20 -20 -19 -20 -18 -17 -17 -17 -17 -17 -17 -17
-26 -26 -26 -26 -26 -26 -25 -25 -24 -24 -24 -24 -24 -24 -24 -24 -24 -23 -23 -23 -23 -23 -23 -23 -23 -22 -22 -22 -22 -22 -22 -21 -21 -20 -20 -20 -20 -19 -19 -18 -18 -18 -18 -18
-27 -27 -26 -26 -26 -26 -26 -26 -25 -25 -25 -24 -24 -24 -24 -24 -24 -23 -23 -23 -23 -23 -23 -23 -23 -23 -23 -23 -23 -22 -22 -22 -22 -22 -21 -20 -20 -20 -20 -20 -19 -19 -19 -19
-27 -27 -26 -26 -26 -26 -26 -26 -26 -26 -25 -25 -25 -25 -25 -24 -24 -24 -24 -24 -23 -23 -23 -23 -23 -23 -23 -23 -23 -23 -22 -22 -22 -22 -22 -22 -21 -21 -21 -20 -20 -20 -20 -20
-27 -27 -27 -27 -27 -26 -26 -26 -26 -26 -26 -25 -25 -25 -25 -25 -25 -24 -24 -24 -24 -24 -23 -23 -23 -23 -23 -23 -23 -23 -23 -22 -22 -22 -22 -22 -23 -23 -22 -22 -22 -22 -21 -21
-27 -27 -27 -27 -27 -27 -26 -26 -26 -26 -26 -26 -26 -26 -26 -25 -25 -25 -25 -25 -24 -24 -24 -24 -24 -24 -23 -23 -23 -23 -23 -23 -23 -23 -22 -22 -22 -22 -22 -23 -23 -23 -22 -22
-27 -27 -27 -27 -27 -27 -27 -27 -26 -26 -26 -26 -26 -26 -26 -26 -26 -26 -25 -25 -25 -25 -25 -24 -24 -24 -24 -23 -23 -23 -23 -23 -23 -23 -23 -23 -23 -23 -22 -22 -22 -22 -22 -22
-27 -27 -27 -27 -27 -27 -27 -27 -27 -27 -27 -27 -27 -27 -26 -26 -26 -26 -26 -26 -25 -25 -25 -25 -24 -24 -24 -24 -24 -24 -23 -23 -23 -23 -23 -23 -23 -23 -23 -22 -22 -22 -22 -22
-27 -27 -27 -27 -27 -27 -27 -27 -28 -28 -28 -28 -28 -28 -27 -27 -27 -27 -26 -26 -26 -26 -26 -26 -25 -25 -25 -25 -24 -24 -24 -24 -24 -24 -24 -24 -23 -23 -23 -23 -23 -23 -23 -23
-27 -27 -27 -28 -28 -28 -28 -28 -28 -28 -28 -28 -28 -28 -28 -28 -28 -27 -27 -27 -27 -26 -26 -26 -26 -26 -26 -25 -25 -25 -25 -24 -24 -24 -24 -24 -24 -24 -24 -24 -24 -24 -24 -24
-28 -28 -28 -28 -28 -28 -28 -29 -29 -29 -29 -29 -29 -29 -28 -28 -28 -28 -28 -28 -28 -27 -27 -27 -27 -26 -26 -26 -26 -26 -26 -25 -25 -25 -25 -25 -25 -25 -25 -25 -25 -25 -25 -24
-29 -29 -29 -29 -29 -29 -30 -30 -30 -30 -30 -30 -30 -29 -29 -29 -29 -29 -29 -29 -28 -28 -28 -28 -28 -27 -27 -27 -27 -26 -26 -26 -26 -26 -26 -26 -26 -26 -25 -25 -25 -25 -25 -25
-29 -29 -29 -29 -29 -30 -30 -30 -31 -30 -30 -30 -30 -30 -30 -30 -30 -30 -30 -30 -29 -29 -29 -29 -29 -28 -28 -28 -28 -27 -27 -27 -27 -27 -27 -27 -26 -26 -26 -26 -27 -26 -26 -26
-29 -29 -29 -29 -30 -30 -30 -31 -31 -31 -31 -31 -31 -31 -31 -31 -32 -32 -32 -32 -32 -31 -31 -31 -30 -30 -30 -29 -29 -29 -29 -29 -28 -28 -28 -28 -28 -28 -27 -27 -27 -27 -27 -27
-29 -29 -30 -30 -30 -30 -30 -31 -31 -31 -31 -31 -31 -31 -32 -33 -33 -33 -33 -33 -33 -33 -33 -33 -32 -32 -32 -32 -31 -31 -30 -30 -30 -30 -30 -29 -29 -29 -29 -29 -29 -29 -29 -29
Height
5561 5559 5556 5556 5557 5559 5560 5561 5563 5565 5565 5567 5568 5572 5573 5581 5582 5585 5590 5591 5596 5600 5603 5605 5605 5606 5607 5607 5607 5607 5607 5609 5610 5612 5615 5618 5621 5626 5629 5632 5636 5640 5644 5646
5561 5559 5557 5555 5557 5557 5559 5561 5561 5565 5566 5569 5568 5569 5572 5575 5572 5577 5584 5587 5590 5592 5594 5595 5597 5597 5598 5599 5600 5599 5600 5600 5600 5602 5605 5607 5611 5614 5617 5621 5625 5628 5631 5634
5559 5558 5557 5556 5557 5557 5558 5560 5562 5563 5565 5567 5567 5568 5570 5574 5574 5577 5580 5582 5585 5586 5588 5590 5591 5591 5591 5592 5591 5590 5591 5590 5591 5592 5594 5596 5600 5604 5606 5610 5614 5616 5620 5622
5557 5557 5557 5556 5556 5555 5558 5560 5560 5562 5564 5565 5565 5566 5568 5572 5574 5576 5577 5579 5580 5582 5583 5584 5584 5584 5583 5583 5582 5582 5581 5581 5583 5584 5585 5587 5590 5593 5595 5598 5602 5605 5607 5611
5554 5556 5556 5555 5554 5556 5556 5557 5558 5557 5559 5560 5561 5563 5566 5568 5571 5573 5574 5575 5576 5576 5577 5577 5577 5576 5575 5574 5573 5572 5572 5572 5572 5574 5573 5575 5577 5580 5582 5586 5589 5592 5596 5599
5553 5553 5554 5554 5553 5555 5556 5556 5555 5556 5557 5559 5560 5561 5563 5565 5566 5568 5569 5570 5571 5571 5571 5571 5569 5567 5565 5563 5562 5561 5560 5560 5559 5559 5559 5561 5563 5565 5567 5568 5573 5578 5583 5585
5551 5552 5553 5554 5553 5553 5554 5559 5554 5555 5555 5556 5558 5558 5559 5560 5562 5563 5563 5564 5564 5563 5563 5562 5559 5558 5557 5554 5552 5550 5549 5547 5545 5545 5545 5545 5548 5550 5553 5557 5560 5562 5569 5572
5550 5549 5552 5552 5552 5553 5552 5551 5552 5553 5553 5554 5554 5553 5554 5555 5555 5555 5556 5557 5557 5556 5554 5554 5554 5552 5550 5547 5543 5540 5538 5536 5533 5532 5532 5532 5534 5538 5545 5547 5547 5553 5559 5559
5549 5549 5548 5547 5548 5548 5548 5548 5548 5549 5549 5550 5551 5549 5550 5552 5552 5552 5551 5551 5550 5550 5550 5549 5548 5546 5543 5540 5537 5533 5529 5526 5524 5521 5522 5522 5525 5531 5536 5539 5545 5548 5553 5557
5546 5545 5544 5545 5546 5546 5545 5545 5544 5543 5544 5544 5545 5545 5546 5546 5547 5547 5548 5547 5546 5545 5545 5544 5542 5540 5537 5535 5532 5529 5524 5519 5515 5512 5511 5514 5518 5524 5528 5531 5537 5541 5547 5551
5543 5542 5541 5540 5540 5540 5540 5539 5539 5538 5539 5539 5538 5539 5540 5540 5541 5542 5541 5541 5540 5540 5539 5537 5536 5533 5531 5529 5527 5525 5521 5516 5511 5508 5505 5507 5510 5516 5520 5527 5533 5535 5540 5544
5539 5538 5537 5536 5535 5534 5534 5534 5534 5534 5533 5533 5533 5532 5533 5534 5535 5535 5535 5534 5534 5533 5532 5530 5529 5527 5525 5523 5521 5519 5517 5513 5511 5508 5504 5502 5503 5507 5514 5519 5524 5527 5531 5535
5534 5534 5533 5532 5530 5529 5528 5528 5528 5526 5526 5526 5527 5527 5526 5527 5528 5528 5528 5528 5528 5527 5526 5525 5523 5522 5520 5518 5517 5514 5512 5511 5509 5506 5504 5502 5501 5501 5505 5511 5515 5519 5522 5525
5529 5529 5529 5528 5526 5525 5523 5520 5520 5519 5520 5521 5521 5521 5521 5521 5522 5522 5522 5522 5521 5520 5520 5520 5518 5517 5515 5514 5513 5512 5510 5508 5505 5505 5503 5501 5501 5501 5500 5502 5506 5507 5512 5516
5523 5523 5523 5523 5522 5521 5519 5516 5515 5515 5514 5514 5515 5515 5515 5515 5515 5516 5516 5515 5515 5515 5515 5514 5513 5512 5511 5510 5509 5508 5507 5506 5505 5501 5500 5500 5499 5499 5499 5500 5501 5503 5504 5507
5517 5517 5517 5518 5517 5515 5515 5514 5512 5510 5510 5510 5509 5509 5508 5508 5508 5508 5509 5508 5508 5508 5508 5508 5508 5507 5506 5505 5504 5503 5502 5501 5500 5499 5498 5497 5496 5495 5494 5495 5496 5497 5499 5501
5512 5512 5512 5512 5511 5510 5510 5509 5507 5506 5505 5504 5504 5503 5502 5501 5501 5500 5500 5500 5500 5500 5501 5501 5501 5501 5501 5500 5499 5498 5497 5495 5495 5494 5494 5494 5493 5491 5491 5491 5491 5490 5490 5491
5506 5505 5505 5506 5505 5503 5502 5501 5500 5499 5498 5497 5496 5495 5494 5493 5492 5491 5491 5491 5491 5492 5492 5492 5492 5492 5492 5492 5492 5491 5490 5489 5488 5488 5487 5487 5487 5487 5487 5487 5487 5488 5487 5488
5503 5502 5500 5499 5497 5495 5493 5492 5490 5489 5488 5487 5487 5486 5485 5483 5482 5482 5481 5481 5481 5482 5481 5481 5482 5482 5482 5482 5482 5483 5482 5481 5480 5479 5479 5479 5479 5478 5478 5478 5479 5480 5481 5481
5499 5497 5495 5492 5490 5487 5485 5482 5480 5478 5477 5476 5475 5474 5473 5472 5471 5470 5470 5470 5470 5469 5469 5470 5470 5471 5471 5471 5471 5470 5470 5470 5470 5470 5470 5470 5470 5470 5469 5469 5469 5469 5470 5471
5494 5491 5488 5485 5482 5479 5476 5473 5470 5468 5466 5464 5462 5461 5460 5458 5458 5457 5456 5457 5456 5456 5456 5456 5456 5457 5458 5458 5457 5457 5457 5457 5458 5457 5457 5457 5458 5458 5458 5458 5458 5459 5459 5458
5487 5484 5481 5478 5474 5471 5467 5463 5459 5456 5453 5451 5449 5447 5445 5444 5443 5441 5441 5440 5440 5440 5440 5440 5440 5440 5441 5442 5442 5442 5442 5442 5442 5442 5442 5442 5443 5443 5443 5444 5444 5445 5445 5445
5482 5479 5475 5471 5467 5461 5456 5451 5447 5443 5440 5437 5434 5431 5429 5427 5425 5425 5424 5423 5423 5422 5422 5422 5423 5423 5423 5424 5424 5425 5425 5425 5425 5425 5426 5426 5427 5427 5427 5427 5427 5428 5429 5430
5478 5474 5469 5464 5459 5454 5447 5442 5436 5432 5427 5423 5420 5416 5412 5410 5408 5406 5404 5404 5403 5402 5402 5402 5403 5403 5404 5405 5405 5405 5406 5406 5407 5407 5407 5407 5408 5409 5409 5410 5410 5411 5411 5410
5472 5467 5463 5458 5453 5447 5441 5434 5427 5421 5415 5409 5405 5400 5396 5392 5389 5386 5383 5382 5382 5381 5381 5381 5381 5381 5382 5383 5384 5385 5385 5386 5386 5387 5388 5389 5389 5389 5389 5390 5390 5390 5390 5391
5467 5463 5458 5453 5448 5442 5436 5429 5421 5414 5406 5400 5394 5388 5382 5377 5373 5370 5367 5364 5363 5361 5360 5359 5360 5360 5361 5361 5363 5363 5364 5364 5365 5366 5367 5368 5368 5369 5370 5370 5371 5370 5371 5371
5462 5457 5453 5449 5443 5437 5432 5425 5418 5409 5402 5394 5387 5380 5373 5368 5364 5359 5355 5352 5349 5347 5346 5345 5343 5342 5342 5342 5342 5343 5343 5344 5344 5345 5346 5347 5347 5347 5348 5348 5348 5348 5349 5350
Wind_Speed
4 10 8 11 17 16 15 12 7 10 9 7 3 14 12 19 40 37 28 21 21 22 28 32 34 38 37 32 33 33 35 35 36 36 38 38 39 42 41 41 40 41 43 44
3 5 10 11 16 19 20 17 22 16 11 3 9 19 18 25 21 27 23 18 20 20 19 22 22 26 29 35 38 33 34 34 34 36 39 41 41 43 42 43 43 44 44 46
7 6 12 8 8 17 19 21 22 23 18 16 9 16 19 18 15 23 25 22 19 18 19 20 23 25 29 32 34 37 38 35 38 40 41 42 41 41 41 40 41 42 43 45
8 5 1 4 10 22 13 12 11 26 21 21 20 13 13 11 17 13 16 15 17 20 23 25 27 30 30 31 33 33 32 35 39 40 42 42 41 41 40 41 41 42 44 46
10 10 3 4 2 9 10 6 1 8 19 17 14 18 21 19 13 12 14 16 21 23 25 28 30 30 30 31 33 32 32 34 36 39 41 41 42 44 48 48 48 48 53 52
10 11 12 10 10 6 7 9 10 11 14 13 11 19 20 21 19 15 15 17 19 21 24 26 29 29 30 32 33 34 36 37 39 39 41 43 45 47 46 45 48 53 53 59
11 12 12 13 13 12 12 10 12 14 16 16 17 12 16 18 17 17 19 22 24 24 24 27 28 30 33 34 36 38 39 38 42 43 41 42 38 35 29 33 40 38 44 49
9 14 14 12 16 17 18 18 15 16 17 19 24 24 18 20 20 22 25 26 27 26 28 28 28 29 31 32 33 34 34 32 35 36 33 34 28 25 28 30 36 35 42 38
9 9 9 12 13 17 20 18 19 21 21 21 23 23 23 21 22 22 23 26 28 28 27 26 26 28 26 24 24 27 27 25 25 27 29 27 30 29 32 30 34 36 38 38
12 13 15 15 16 13 10 15 18 19 21 22 25 23 25 28 27 25 28 26 27 26 25 23 24 23 24 23 22 22 24 21 24 21 27 33 33 30 29 30 33 42 30 32
21 18 17 17 18 17 16 16 14 16 18 20 20 24 28 27 27 30 27 26 25 24 23 22 21 20 23 24 23 25 28 19 17 19 12 19 34 37 35 35 37 38 39 41
16 16 19 19 19 19 17 17 18 18 21 22 20 20 24 26 28 24 22 21 20 19 18 19 17 17 17 19 25 26 18 16 14 7 4 11 20 34 33 41 42 45 46 49
17 17 17 17 17 18 18 18 18 15 21 20 25 23 21 24 21 20 18 17 17 15 14 15 12 12 12 13 12 12 12 9 5 7 7 9 16 29 33 40 43 42 38 44
20 18 15 17 18 13 12 15 17 17 18 20 22 25 21 19 21 21 18 16 15 14 14 15 14 13 12 11 11 12 14 15 12 5 1 3 8 20 25 28 31 32 33 35
19 18 16 16 17 16 10 8 8 12 16 20 21 23 23 20 19 21 20 16 16 15 15 15 14 14 14 14 14 13 12 12 15 15 11 7 4 7 13 17 23 27 28 32
20 18 18 17 17 17 17 13 12 10 12 15 16 16 16 17 19 21 22 20 20 19 20 19 18 17 16 15 15 17 17 15 13 12 14 15 15 12 9 6 11 15 18 19
23 21 20 20 23 21 20 20 19 19 18 19 19 20 20 21 22 22 23 23 24 24 24 23 22 23 22 22 21 19 19 18 16 15 15 16 15 16 16 16 15 15 15 15
12 14 18 22 25 27 29 30 30 30 29 28 26 24 25 26 25 25 26 27 28 29 28 28 28 27 28 28 26 26 25 24 23 22 21 20 19 19 19 20 20 20 20 21
14 16 17 20 22 25 28 30 32 34 35 34 33 31 30 30 30 30 29 30 30 31 31 32 33 33 34 34 34 33 32 32 31 29 28 28 27 26 26 26 26 27 28 28
20 21 22 24 25 25 26 27 27 28 32 33 33 34 35 36 35 34 34 35 35 35 36 37 38 38 39 39 39 39 39 38 37 36 34 33 33 32 33 35 36 36 37 37
24 25 26 27 27 28 30 30 30 31 31 32 34 37 38 39 39 40 40 40 39 39 40 41 42 44 45 46 45 46 46 45 44 43 42 41 39 39 39 39 39 39 40 41
23 23 24 25 26 28 30 32 33 34 35 36 38 40 41 42 43 44 45 45 46 46 47 46 46 45 45 46 47 49 50 51 51 50 50 49 49 49 47 46 46 46 45 46
21 24 25 26 29 32 33 33 35 36 38 39 40 41 43 44 45 47 49 49 50 51 51 51 51 51 51 51 50 49 49 50 51 52 52 51 50 51 51 51 51 51 50 51
20 23 24 28 32 34 31 30 31 33 34 36 38 40 43 45 47 47 48 50 51 52 53 54 55 57 57 56 57 56 56 55 54 53 53 53 53 53 53 53 55 56 57 58
26 29 30 31 32 35 37 34 31 33 33 33 34 36 38 42 45 48 50 51 52 52 53 54 55 56 57 58 59 60 61 62 61 60 59 59 59 58 58 57 57 57 58 58
29 30 31 33 33 33 37 40 36 36 35 33 32 32 31 32 33 35 36 38 40 42 44 46 48 51 54 56 58 58 59 60 60 61 61 61 61 61 62 62 63 63 64 64
31 32 33 33 34 34 34 38 40 37 37 35 34 32 30 29 28 28 29 30 31 32 34 35 37 39 41 44 47 50 53 55 57 59 60 60 60 60 61 62 62 63 64 65
Wind_Direction
319 357 307 222 216 216 221 218 234 189 236 216 235 207 219 226 229 232 223 226 228 241 245 252 259 254 250 253 260 260 258 257 254 251 250 247 241 242 245 247 248 248 247 245
264 310 52 235 227 235 231 231 233 214 228 209 251 259 227 230 196 210 219 241 249 255 261 260 255 255 255 252 248 256 256 253 254 253 250 250 250 248 247 250 252 249 249 246
269 317 111 201 219 238 239 238 234 230 238 240 305 268 275 248 257 216 239 233 236 249 261 261 263 262 259 258 259 256 255 257 256 256 255 256 251 248 246 247 247 247 247 246
193 284 352 355 105 223 232 233 244 225 240 248 238 238 231 236 214 238 222 230 245 253 258 262 266 264 264 265 263 262 257 254 253 252 252 252 250 249 247 246 246 247 245 243
190 197 269 144 310 201 220 133 266 219 226 242 245 281 282 284 287 256 250 248 251 258 262 265 266 266 268 271 270 271 270 266 257 255 255 254 253 252 252 250 246 243 241 243
217 219 232 262 279 267 285 271 281 285 278 279 301 285 279 282 284 271 257 262 264 264 266 269 270 275 277 277 279 279 279 276 270 265 263 260 256 257 253 248 242 238 220 236
250 237 238 242 261 262 268 267 272 271 273 275 263 292 283 272 270 266 263 263 269 275 278 281 285 284 284 283 282 281 280 279 275 271 269 263 257 247 236 240 238 220 234 239
255 270 269 251 254 262 270 274 270 261 266 269 264 274 277 279 282 280 277 276 277 280 286 288 290 289 288 287 288 285 283 276 273 273 256 253 237 225 231 229 223 238 232 223
275 292 272 295 292 278 270 283 278 275 269 269 276 274 275 276 277 283 284 280 284 285 286 286 286 286 287 292 303 305 291 285 284 277 250 230 210 215 225 225 227 237 228 218
302 295 295 285 282 295 284 273 279 286 288 284 274 274 274 269 274 272 288 281 280 281 281 285 282 282 279 286 295 317 311 306 293 270 235 220 228 215 218 227 223 224 234 235
277 293 301 302 298 291 290 282 291 296 287 274 277 276 276 277 274 275 278 278 278 279 282 286 288 289 283 280 291 300 314 311 307 283 268 231 224 212 220 224 217 219 217 230
272 282 293 298 290 281 275 274 273 283 291 269 258 266 270 274 272 271 272 275 277 278 287 291 286 295 300 296 292 296 296 309 300 255 233 249 221 212 217 221 227 223 230 224
262 287 303 306 295 273 262 256 258 272 284 278 261 266 265 258 258 270 274 272 274 280 288 287 285 288 300 303 301 309 301 294 304 292 197 145 189 210 212 215 223 221 231 227
265 275 293 298 294 283 283 265 258 257 267 274 264 258 253 261 258 262 261 262 270 275 279 285 286 280 282 288 293 303 313 316 320 267 257 253 181 178 174 186 192 200 218 223
269 269 268 279 292 284 288 308 286 269 266 264 264 253 256 256 250 249 258 263 267 271 276 284 285 281 283 284 281 284 289 297 308 321 314 271 224 187 195 195 194 196 198 207
267 271 268 274 285 288 285 278 285 284 274 267 263 265 266 262 260 256 258 262 266 269 271 272 274 277 277 279 282 286 286 283 286 294 303 310 311 304 298 255 214 202 205 212
269 265 272 276 276 278 280 283 292 297 288 273 267 268 269 267 264 264 267 266 265 266 270 274 274 273 273 272 274 273 276 282 283 282 278 279 286 295 298 301 302 302 300 297
308 293 282 277 280 284 284 282 283 282 288 284 287 283 277 270 268 268 268 267 267 267 265 271 272 272 271 273 273 273 274 272 272 277 276 277 276 272 272 274 277 277 273 270
323 313 308 306 295 288 285 282 283 278 277 276 274 275 276 276 274 273 271 269 268 267 267 267 268 269 270 271 272 270 271 273 273 275 277 276 275 275 273 272 270 269 268 267
317 312 307 304 304 302 300 294 290 281 273 272 271 269 267 271 270 270 271 270 270 271 271 270 268 268 270 269 271 272 270 269 269 271 272 272 272 273 275 274 273 274 275 273
309 308 306 305 304 302 300 296 294 287 282 279 275 272 269 268 268 268 267 269 270 270 269 269 270 269 268 268 269 270 271 271 271 271 272 274 272 272 272 272 272 273 273 273
315 316 315 313 311 307 301 295 292 288 284 281 279 277 274 271 270 269 268 267 267 268 267 268 267 268 268 269 269 269 270 270 271 273 273 273 274 274 273 271 270 270 270 270
323 322 320 318 322 320 308 298 293 290 288 285 282 280 277 275 272 270 268 267 266 265 264 264 264 265 267 267 267 266 267 267 269 270 271 271 272 272 273 273 273 272 271 270
328 330 332 337 340 336 329 319 312 306 300 296 291 287 284 281 277 274 272 269 268 266 265 264 262 262 262 263 263 264 266 266 265 266 268 269 270 269 270 270 271 271 270 270
341 341 339 336 335 340 344 340 328 324 318 310 304 296 289 283 280 277 275 273 271 269 267 266 265 264 263 263 262 262 263 265 266 267 267 268 269 270 270 270 270 270 270 270
339 338 337 336 336 334 341 348 345 342 337 329 324 319 311 303 297 291 286 282 278 275 274 272 270 267 266 264 264 264 264 264 264 265 266 266 266 266 267 267 267 267 268 268
335 334 334 334 333 333 337 345 351 348 348 343 339 338 330 321 313 308 303 297 291 286 281 277 276 275 273 270 267 264 263 263 264 265 266 266 267 267 267 267 267 267 268 268